Home > Time Zones > World Clock > Weather > U.S.A. > Mesa > Past weeks

Flag for U.S.A. Weather past 2 weeks in Mesa, Arizona, U.S.A.

Now
93 °F

Clear.


Feels Like: 89 °F
Forecast: 86 / 110 °F
Wind: 6 mph from Southeast

Location: Williams Gateway Airport

Current Time: Jul 23, 2014 at 2:14:16 AM

Latest Report: Jul 23, 2014 at 1:15 AM


Visibility: 10 mi

Pressure: 29.93 "Hg

Humidity: 17%

Dew point: 43 °F

Location of MesaLocation

Historic Weather in Mesa — Graph

°F

Mesa temperature yesterday

Maximum temperature yesterday: 108 °F (at 3:47 PM)
Minimum temperature yesterday: 81 °F (at 3:15 AM)
Average temperature yesterday: 91 °F

Past Weeks' High & Low Weather Summary

 TemperatureHumidityPressure
High108 °F (Jul 22, 3:47 PM)83% (Jul 14, 5:47 AM)30.05 "Hg (Jul 14, 5:47 AM)
Low75 °F (Jul 14, 5:47 AM)9% (Jul 20, 1:47 PM)29.79 "Hg (Jul 10, 5:47 PM)
Average89 °F33%29.92 "Hg
* Reported Jul 8 12:15 AM — Jul 23 12:55 AM, Mesa, Weather by CustomWeather, © 2014

Note: Actual official high and low records may vary slightly from our data, if they occured in-between our weather recording intervals... More about our weather records

Advertising

Mesa weather history for previous 24 hours

 ConditionsComfort  
Time TempWeatherWind HumidityBarometerVisibility
12:55 AM
Jul 23
95 °FClear.No wind15%29.92 "Hg10 mi
10:55 PM
Jul 22
95 °FClear.6 mph16%29.91 "Hg10 mi
10:15 PM93 °FClear.3 mph19%29.91 "Hg10 mi
9:55 PM99 °FClear.No wind15%29.90 "Hg10 mi
9:35 PM99 °FClear.No wind16%29.90 "Hg10 mi
9:15 PM99 °FClear.No wind15%29.89 "Hg10 mi
8:55 PM100 °FClear.3 mph15%29.88 "Hg10 mi
8:15 PM100 °FClear.3 mph13%29.87 "Hg10 mi
7:55 PM104 °FClear.6 mph12%29.87 "Hg10 mi
6:58 PM108 °FPassing clouds.7 mph10%29.86 "Hg45 mi
5:47 PM108 °FScattered clouds.9 mph10%29.85 "Hg45 mi
4:59 PM108 °FScattered clouds.6 mph10%29.86 "Hg45 mi
3:47 PM108 °FPartly sunny.13 mph10%29.88 "Hg45 mi
9:47 AM93 °FPartly sunny.5 mph20%30.00 "Hg45 mi
8:47 AM88 °FPartly sunny.7 mph25%30.00 "Hg45 mi
7:49 AM84 °FPartly sunny.6 mph29%29.99 "Hg45 mi
6:47 AM84 °FBroken clouds.6 mph25%29.97 "Hg45 mi
5:47 AM81 °FBroken clouds.7 mph26%29.97 "Hg45 mi
5:15 AM81 °FClear.3 mph28%29.95 "Hg10 mi
4:55 AM81 °FClear.6 mph32%29.95 "Hg20 mi
3:15 AM81 °FClear.5 mph28%29.93 "Hg10 mi
2:55 AM82 °FClear.No wind26%29.93 "Hg10 mi
2:35 AM82 °FClear.No wind28%29.93 "Hg10 mi
2:15 AM82 °FClear.No wind28%29.93 "Hg10 mi
Weather by CustomWeather, © 2014

See weather overviewHow to use our weather pages